When you browse on this site, cookies collect data to enhance your experience and personalize the content and advertising you see.
Visit our Privacy Policy to learn more. By continuing to use the site, you agree to this use of cookies and data.
  • en Suisse
  • Liste des pays
  • À 7 jours
  • Température de l'eau
  • Carte météo
  • Widgets météo
  • user-avatar
    Se connecter

    Météo par heure à Giumri

    Ce jour, 14 Octobre, Lundi

    Heure Température Précipitation Vent Pression Humidité
    00:00 +8°C° 0 mm 0 m/s 641 mmHg 37%
    01:00 +8°C° 0 mm 0 m/s 640 mmHg 35%
    02:00 +7°C° 0 mm 0 m/s 640 mmHg 34%
    03:00 +7°C° 0 mm 0 m/s 640 mmHg 33%
    04:00 +7°C° 0 mm 0 m/s 640 mmHg 34%
    05:00 +7°C° 0 mm 0 m/s 640 mmHg 34%
    06:00 +6°C° 0 mm 0 m/s 640 mmHg 34%
    07:00 +10°C° 0 mm 1 m/s 640 mmHg 32%
    08:00 +12°C° 0 mm 1 m/s 641 mmHg 29%
    09:00 +14°C° 0 mm 1 m/s 643 mmHg 27%
    10:00 +16°C° 0 mm 1 m/s 643 mmHg 24%
    11:00 +18°C° 0 mm 1 m/s 643 mmHg 22%
    12:00 +19°C° 0 mm 2 m/s 643 mmHg 20%
    13:00 +19°C° 0 mm 2 m/s 643 mmHg 19%
    14:00 +21°C° 0 mm 1 m/s 643 mmHg 18%
    15:00 +22°C° 0 mm 1 m/s 643 mmHg 17%
    16:00 +19°C° 0 mm 1 m/s 642 mmHg 22%
    17:00 +16°C° 0 mm 1 m/s 641 mmHg 26%
    18:00 +14°C° 0 mm 1 m/s 640 mmHg 30%
    19:00 +13°C° 0 mm 1 m/s 640 mmHg 33%
    20:00 +13°C° 0 mm 1 m/s 640 mmHg 35%
    21:00 +12°C° 0 mm 1 m/s 640 mmHg 38%
    22:00 +11°C° 0 mm 1 m/s 640 mmHg 39%
    23:00 +11°C° 0 mm 1 m/s 640 mmHg 41%

    Demain, 15 Octobre, Mardi

    Heure Température Précipitation Vent Pression Humidité
    00:00 +11°C° 0 mm 1 m/s 640 mmHg 42%
    01:00 +10°C° 0 mm 1 m/s 639 mmHg 42%
    02:00 +10°C° 0 mm 1 m/s 639 mmHg 43%
    03:00 +9°C° 0 mm 1 m/s 639 mmHg 43%
    04:00 +9°C° 0 mm 1 m/s 639 mmHg 42%
    05:00 +9°C° 0 mm 1 m/s 639 mmHg 41%
    06:00 +9°C° 0 mm 1 m/s 638 mmHg 40%
    07:00 +11°C° 0 mm 1 m/s 639 mmHg 35%
    08:00 +13°C° 0 mm 1 m/s 640 mmHg 31%
    09:00 +16°C° 0 mm 1 m/s 641 mmHg 27%
    10:00 +18°C° 0 mm 1 m/s 641 mmHg 24%
    11:00 +19°C° 0 mm 2 m/s 641 mmHg 22%
    12:00 +20°C° 0 mm 2 m/s 641 mmHg 19%
    13:00 +21°C° 0 mm 2 m/s 641 mmHg 18%
    14:00 +21°C° 0 mm 2 m/s 641 mmHg 17%
    15:00 +23°C° 0 mm 2 m/s 641 mmHg 16%
    16:00 +19°C° 0 mm 2 m/s 640 mmHg 19%
    17:00 +18°C° 0 mm 1 m/s 639 mmHg 22%
    18:00 +15°C° 0 mm 1 m/s 638 mmHg 25%
    19:00 +14°C° 0 mm 1 m/s 638 mmHg 25%
    20:00 +14°C° 0 mm 1 m/s 638 mmHg 26%
    21:00 +13°C° 0 mm 1 m/s 638 mmHg 26%
    22:00 +13°C° 0 mm 1 m/s 638 mmHg 27%
    23:00 +12°C° 0 mm 1 m/s 638 mmHg 27%

    Après-demain, 16 Octobre, Mercredi

    Heure Température Précipitation Vent Pression Humidité
    00:00 +12°C° 0 mm 1 m/s 637 mmHg 28%
    01:00 +11°C° 0 mm 1 m/s 637 mmHg 29%
    02:00 +11°C° 0 mm 1 m/s 637 mmHg 29%
    03:00 +11°C° 0 mm 1 m/s 637 mmHg 30%
    04:00 +10°C° 0 mm 1 m/s 637 mmHg 31%
    05:00 +10°C° 0 mm 1 m/s 637 mmHg 31%
    06:00 +10°C° 0 mm 1 m/s 636 mmHg 32%
    07:00 +12°C° 0 mm 1 m/s 637 mmHg 28%
    08:00 +15°C° 0 mm 1 m/s 638 mmHg 25%
    09:00 +18°C° 0 mm 1 m/s 639 mmHg 22%
    10:00 +19°C° 0 mm 1 m/s 639 mmHg 20%
    11:00 +21°C° 0 mm 1 m/s 639 mmHg 18%
    12:00 +23°C° 0 mm 2 m/s 640 mmHg 16%
    13:00 +23°C° 0 mm 2 m/s 639 mmHg 15%
    14:00 +23°C° 0 mm 2 m/s 639 mmHg 14%
    15:00 +24°C° 0 mm 2 m/s 639 mmHg 14%
    16:00 +20°C° 0 mm 2 m/s 638 mmHg 17%
    17:00 +19°C° 0 mm 1 m/s 638 mmHg 20%
    18:00 +16°C° 0 mm 1 m/s 637 mmHg 24%
    19:00 +15°C° 0 mm 1 m/s 637 mmHg 26%
    20:00 +14°C° 0 mm 1 m/s 637 mmHg 29%
    21:00 +14°C° 0 mm 1 m/s 637 mmHg 32%
    22:00 +13°C° 0 mm 1 m/s 637 mmHg 33%
    23:00 +13°C° 0 mm 1 m/s 637 mmHg 34%

    17 Octobre, Jeudi

    Heure Température Précipitation Vent Pression Humidité
    00:00 +12°C° 0 mm 1 m/s 637 mmHg 36%
    01:00 +12°C° 0 mm 1 m/s 637 mmHg 37%
    02:00 +12°C° 0 mm 1 m/s 637 mmHg 38%
    03:00 +11°C° 0 mm 1 m/s 637 mmHg 39%
    04:00 +11°C° 0 mm 1 m/s 637 mmHg 39%
    05:00 +11°C° 0 mm 1 m/s 637 mmHg 40%
    06:00 +10°C° 0 mm 1 m/s 636 mmHg 40%
    07:00 +13°C° 0 mm 1 m/s 637 mmHg 36%
    08:00 +15°C° 0 mm 1 m/s 638 mmHg 32%
    09:00 +18°C° 0 mm 1 m/s 639 mmHg 27%
    10:00 +20°C° 0 mm 1 m/s 639 mmHg 24%
    11:00 +21°C° 0 mm 1 m/s 640 mmHg 21%
    12:00 +23°C° 0 mm 2 m/s 640 mmHg 18%
    13:00 +23°C° 0 mm 2 m/s 640 mmHg 18%
    14:00 +23°C° 0 mm 2 m/s 639 mmHg 18%
    15:00 +24°C° 0 mm 2 m/s 639 mmHg 17%
    16:00 +20°C° 0 mm 2 m/s 638 mmHg 24%
    17:00 +19°C° 0 mm 1 m/s 638 mmHg 31%
    18:00 +16°C° 0 mm 1 m/s 637 mmHg 37%
    19:00 +15°C° 0 mm 1 m/s 637 mmHg 41%
    20:00 +14°C° 0 mm 1 m/s 637 mmHg 45%
    21:00 +13°C° 0 mm 1 m/s 637 mmHg 48%
    22:00 +13°C° 0 mm 1 m/s 637 mmHg 48%
    23:00 +13°C° 0 mm 1 m/s 637 mmHg 48%

    18 Octobre, Vendredi

    Heure Température Précipitation Vent Pression Humidité
    00:00 +12°C° 0 mm 1 m/s 636 mmHg 48%
    01:00 +12°C° 0 mm 1 m/s 636 mmHg 47%
    02:00 +12°C° 0 mm 1 m/s 636 mmHg 46%
    03:00 +12°C° 0 mm 1 m/s 636 mmHg 45%
    04:00 +11°C° 0 mm 1 m/s 636 mmHg 44%
    05:00 +11°C° 0 mm 1 m/s 636 mmHg 44%
    06:00 +11°C° 0 mm 1 m/s 636 mmHg 44%
    07:00 +13°C° 0 mm 1 m/s 637 mmHg 40%
    08:00 +15°C° 0 mm 1 m/s 637 mmHg 36%
    09:00 +19°C° 0 mm 1 m/s 638 mmHg 32%
    10:00 +20°C° 0 mm 1 m/s 638 mmHg 30%
    11:00 +21°C° 0 mm 2 m/s 638 mmHg 28%
    12:00 +23°C° 0 mm 2 m/s 639 mmHg 25%
    13:00 +23°C° 0 mm 2 m/s 638 mmHg 25%
    14:00 +23°C° 0 mm 2 m/s 638 mmHg 25%
    15:00 +24°C° 0 mm 2 m/s 638 mmHg 24%
    16:00 +21°C° 0 mm 2 m/s 637 mmHg 29%
    17:00 +20°C° 0 mm 1 m/s 637 mmHg 34%
    18:00 +18°C° 0 mm 1 m/s 636 mmHg 38%
    19:00 +16°C° 0 mm 1 m/s 636 mmHg 40%
    20:00 +15°C° 0 mm 1 m/s 636 mmHg 42%
    21:00 +15°C° 0 mm 1 m/s 636 mmHg 44%
    22:00 +14°C° 0 mm 1 m/s 636 mmHg 46%
    23:00 +14°C° 0 mm 1 m/s 636 mmHg 47%

    19 Octobre, Samedi

    Heure Température Précipitation Vent Pression Humidité
    00:00 +13°C° 0 mm 1 m/s 636 mmHg 48%
    01:00 +13°C° 0 mm 1 m/s 636 mmHg 49%
    02:00 +13°C° 0 mm 1 m/s 635 mmHg 51%
    03:00 +12°C° 0 mm 1 m/s 635 mmHg 52%
    04:00 +12°C° 0 mm 1 m/s 635 mmHg 53%
    05:00 +12°C° 0 mm 1 m/s 635 mmHg 54%
    06:00 +11°C° 0 mm 1 m/s 636 mmHg 55%
    07:00 +13°C° 0 mm 1 m/s 636 mmHg 50%
    08:00 +15°C° 0 mm 1 m/s 637 mmHg 44%
    09:00 +16°C° 0 mm 0 m/s 638 mmHg 38%
    10:00 +20°C° 0 mm 1 m/s 638 mmHg 36%
    11:00 +20°C° 0 mm 2 m/s 638 mmHg 33%
    12:00 +21°C° 0 mm 2 m/s 638 mmHg 30%
    13:00 +21°C° 0 mm 3 m/s 638 mmHg 30%
    14:00 +21°C° 0 mm 3 m/s 638 mmHg 29%
    15:00 +22°C° 0 mm 3 m/s 638 mmHg 29%
    16:00 +20°C° 0 mm 2 m/s 637 mmHg 36%
    17:00 +18°C° 0 mm 2 m/s 637 mmHg 42%
    18:00 +16°C° 0 mm 2 m/s 636 mmHg 49%
    19:00 +15°C° 0 mm 2 m/s 636 mmHg 53%
    20:00 +14°C° 0 mm 2 m/s 636 mmHg 58%
    21:00 +13°C° 0 mm 2 m/s 636 mmHg 62%
    22:00 +13°C° 0 mm 2 m/s 637 mmHg 63%
    23:00 +13°C° 0 mm 1 m/s 637 mmHg 63%
    Voir plus